Terug naar catalogus

THORAD AGENA D DEB

ActiefPO
NORAD 4929·DEBRIS·🇺🇸 United States

Gelanceerd Apr 8, 1970 vanaf Vandenberg Space Force Base

Loading…

Volgende Passages

TLE

Source: Space-Track
1 04929U 70025FV  26218.22695155  .00000134  00000-0  61047-3 0  9991
2 04929  99.6693 202.0306 0451073 328.2856  42.1063 12.65756061590868

Volg THORAD AGENA D DEB in realtime met AllMySat

Download on the App Store